[[{"header":{"parameterUnit":"m.s-1","parameterCategory":1,"la1":30.2991,"la2":30.254,"lo1":-89.0895,"lo2":-89.0444,"dy":0.0017,"dx":0.0017,"nx":28,"ny":28,"refTime":"2025-07-15T09:00:00:Z","depth":0,"parameterNumber":2,"parameterNumberName":"U-component_of_WINDS"},"data":[0,0,0,0,0,0,0,0,0,0,0,0,0,0,0,0,0,0,0,0,0,0,0,0,0,0,0,0,0,0,0,0,0,0,0,0,0,0,0,0,0,0,0,0,0,0,0,0,0,0,0,0,0,0,0,0,0,0,-3.9315,-3.9315,0,-3.9403,-3.9404,-3.9405,-3.9376,-3.9374,-3.9372,-3.937,-3.946,-3.9464,-3.9468,0,0,0,0,0,0,0,0,0,0,0,0,0,-3.9118,-3.9121,-3.9314,-3.9316,-3.9317,-3.9403,-3.9404,-3.9405,-3.9376,-3.9374,-3.9372,-3.9369,-3.9459,-3.9464,-3.9469,0,0,0,0,0,0,0,0,0,0,0,0,0,-3.9204,-3.9123,-3.9314,-3.9313,-3.9313,-3.9403,-3.9404,-3.9406,-3.9377,-3.9374,-3.9371,-3.9368,-3.9457,-3.9463,-3.9469,-3.9565,0,0,-3.9488,-3.9491,0,0,0,0,0,0,0,0,-3.9199,-3.9212,-3.9312,-3.9313,-3.9314,-3.9376,-3.9368,-3.9459,-3.9377,-3.9353,-3.937,-3.9367,-3.9434,-3.9442,-3.9465,-3.957,-3.9573,-3.9489,-3.9493,-3.9495,-3.9497,0,0,0,0,0,0,0,-3.9194,-3.9208,-3.9349,-3.9313,-3.9314,-3.9307,-3.9316,-3.9385,-3.9408,-3.9355,-3.9353,-3.9364,-3.9434,-3.9459,-3.9467,-3.9575,-3.9489,-3.9494,-3.9498,-3.9501,-3.9761,-3.9764,0,0,0,0,0,0,-3.9187,-3.9203,-3.9347,-3.9352,-3.9248,-3.9312,-3.9323,-3.9359,-3.9408,-3.9412,-3.9366,-3.9362,-3.945,-3.946,-3.947,-3.9584,-3.9495,-3.9501,-3.9505,-3.9757,-3.9761,-3.9765,0,0,0,0,0,0,-3.9183,-3.92,-3.9343,-3.9277,-3.9295,-3.9319,-3.9359,-3.9362,-3.9387,-3.9416,-3.942,-3.9387,-3.9448,-3.9461,-3.9541,-3.9587,-3.9504,-3.951,-3.9754,-3.9759,-3.9763,-3.9814,0,0,0,0,0,0,-3.9177,-3.9199,-3.9236,-3.9278,-3.9298,-3.9414,-3.9362,-3.9366,-3.9398,-3.9393,-3.9437,-3.9442,-3.9447,-3.9532,-3.9548,-3.9594,-3.9515,-3.975,-3.9756,-3.9761,-3.9808,-3.982,-3.9829,0,0,0,0,0,-3.9171,-3.9247,-3.9238,-3.9256,-3.9346,-3.9417,-3.9428,-3.9433,-3.9402,-3.9439,-3.9457,-3.944,-3.958,-3.9541,-3.9558,-3.9606,-3.9747,-3.9754,-3.9761,-3.9803,-3.9817,-3.9829,0,0,0,0,0,0,-3.921,-3.9253,-3.9243,-3.9336,-3.9373,-3.9411,-3.9459,-3.9448,-3.9494,-3.9488,-3.9491,-3.9501,-3.9583,-3.9603,-3.9559,-3.9701,-3.9659,-3.9669,-3.9685,-3.9698,-3.9709,-3.9701,-3.952,0,0,0,0,0,-3.923,-3.9284,-3.9319,-3.9397,-3.9416,-3.9434,-3.9465,-3.9466,-3.9504,-3.9519,-3.9544,-3.9581,-3.9633,-3.9667,-3.9717,-3.9811,-3.9819,-3.9853,-3.9864,-3.9873,-3.9881,-3.9931,-3.9945,-3.9788,-3.9788,-3.9788,0,0,-3.927,-3.9301,-3.9335,-3.9406,-3.9434,-3.949,-3.9448,-3.9509,-3.9549,-3.9528,-3.9605,-3.9625,-3.9666,-3.9754,-3.9793,-3.9773,-3.9927,-3.9882,-3.9888,-3.9892,-3.9939,-3.9954,-3.9967,-3.9793,-3.9792,-3.9791,0,0,-3.9373,-3.9402,-3.9469,-3.9499,-3.9542,-3.9554,-3.957,-3.9611,-3.9622,-3.97,-3.9685,-3.9733,-3.9823,-3.9853,-3.988,-3.9992,-3.9978,-4.0009,-4.0064,-4.0112,-4.0124,-4.0135,-4.0173,-4.0187,-4.0018,-4.0018,-4.0018,0,-3.9417,-3.9501,-3.9505,-3.9567,-3.9598,-3.9582,-3.9649,-3.9677,-3.9735,-3.9756,-3.9733,-3.9844,-3.9872,-3.9964,-3.9992,-4.0015,-4.0032,-4.0003,-4.0122,-4.0133,-4.0144,-4.018,-4.0194,-4.0021,-4.0021,-4.002,-4.002,0,-3.9553,-3.9611,-3.966,-3.9716,-3.9752,-3.9817,-3.983,-3.9866,-3.9864,-3.9877,-3.9955,-3.9987,-4.0042,-4.0065,-4.0063,-4.0157,-4.0143,-4.0121,-4.0078,-4.0162,-4.0196,-4.021,-4.0026,-4.0025,-4.0024,-4.0023,0,0,-3.9682,-3.9739,-3.9756,-3.9781,-3.9827,-3.9872,-3.9935,-3.9989,-4.0019,-4.006,-4.0111,-4.0188,-4.0167,-4.0198,-4.0199,-4.0242,-4.0326,-4.0214,-4.0215,-4.0232,-4.043,-4.0444,-4.046,-4.0317,-4.032,-4.0322,-4.0425,0,-3.9786,-3.9897,-3.9902,-4.0003,-4.0055,-4.0041,-4.0095,-4.0129,-4.0144,-4.019,-4.0206,-4.0259,-4.0229,-4.0247,-4.0289,-4.0307,-4.0365,-4.03,-4.0364,-4.0366,-4.0352,-4.0478,-4.0494,-4.059,-4.0439,-4.0441,-4.0443,0,-3.9923,-3.9966,-4.0072,-4.011,-4.0132,-4.0181,-4.023,-4.0275,-4.0313,-4.032,-4.0354,-4.0349,-4.0412,-4.0368,-4.0455,-4.041,-4.0437,-4.045,-4.0453,-4.0458,-4.0408,-4.0484,-4.0621,-4.0634,-4.0464,-4.0462,-4.0461,0,-4.0003,-4.0089,-4.0163,-4.0184,-4.0231,-4.0265,-4.0286,-4.0321,-4.0353,-4.0395,-4.0415,-4.0465,-4.0492,-4.053,-4.0538,-4.0506,-4.0624,-4.0581,-4.0631,-4.063,-4.0655,-4.0653,-4.0795,-4.0676,-4.0675,-4.0675,-4.0675,0,-4.0118,-4.0183,-4.0199,-4.0244,-4.0316,-4.0321,-4.0392,-4.041,-4.0441,-4.0489,-4.048,-4.0525,-4.0533,-4.058,-4.0587,-4.0656,-4.0669,-4.0676,-4.0676,-4.0675,-4.0674,-4.0691,-4.0684,-4.0679,-4.0678,-4.0677,-4.0677,0,-4.0219,-4.0234,-4.0312,-4.035,-4.036,-4.0411,-4.0443,-4.0485,-4.0499,-4.0559,-4.0574,-4.0594,-4.0648,-4.0661,-4.0725,-4.073,-4.0811,-4.0807,-4.0798,-4.0797,-4.0845,-4.0839,-4.1002,-4.1023,-4.0891,-4.0892,-4.0894,0,-4.0291,-4.034,-4.0382,-4.0413,-4.0436,-4.0487,-4.0518,-4.0525,-4.0558,-4.0605,-4.0641,-4.0694,-4.0737,-4.0824,-4.0844,-4.0893,-4.0888,-4.0942,-4.0896,-4.0892,-4.0887,-4.0883,-4.0887,-4.095,-4.0952,-4.0953,-4.0954,0,-4.0415,-4.0419,-4.0466,-4.0514,-4.0552,-4.0591,-4.0627,-4.0653,-4.0665,-4.0703,-4.0758,-4.0791,-4.0856,-4.0908,-4.0957,-4.0978,-4.0967,-4.0968,-4.0982,-4.098,-4.0973,-4.0975,-4.082,-4.0964,-4.0963,-4.0962,-4.0962,-4.0961,-4.0502,-4.0545,-4.058,-4.0632,-4.066,-4.0694,-4.0735,-4.0754,-4.08,-4.0853,-4.0854,-4.0914,-4.0949,-4.1014,-4.1037,-4.1083,-4.1067,-4.1087,-4.1092,-4.1096,-4.1099,-4.0967,-4.1093,-4.1092,-4.1092,-4.1092,-4.1092,0,-4.0624,-4.0646,-4.0694,-4.0745,-4.0785,-4.0772,-4.0811,-4.0846,-4.0898,-4.0932,-4.0974,-4.1036,-4.1086,-4.1111,-4.116,-4.1192,-4.1189,-4.1205,-4.1202,-4.1206,-4.1113,-4.1095,-4.1207,-4.1207,-4.1207,-4.1207,-4.1207,-4.1207,-4.0693,-4.0762,-4.0771,-4.0854,-4.0876,-4.0934,-4.0957,-4.0988,-4.1015,-4.1085,-4.1126,-4.1142,-4.1172,-4.1223,-4.1268,-4.1274,-4.1292,-4.131,-4.1313,-4.1225,-4.1213,-4.1202,-4.1185,-4.1314,-4.1314,-4.1403,-4.1403,-4.1404]},{"header":{"parameterUnit":"m.s-1","parameterCategory":1,"la1":30.2991,"la2":30.254,"lo1":-89.0895,"lo2":-89.0444,"dy":0.0017,"dx":0.0017,"nx":28,"ny":28,"refTime":"2025-07-15T09:00:00:Z","depth":0,"parameterNumber":3,"parameterNumberName":"V-component_of_WINDS"},"data":[0,0,0,0,0,0,0,0,0,0,0,0,0,0,0,0,0,0,0,0,0,0,0,0,0,0,0,0,0,0,0,0,0,0,0,0,0,0,0,0,0,0,0,0,0,0,0,0,0,0,0,0,0,0,0,0,0,0,2.0386,2.0388,0,2.0503,2.0504,2.0506,2.0521,2.0519,2.0518,2.0517,2.0633,2.0637,2.0641,0,0,0,0,0,0,0,0,0,0,0,0,0,2.0174,2.0178,2.0386,2.0388,2.0389,2.0503,2.0504,2.0506,2.0521,2.0519,2.0518,2.0517,2.0631,2.0636,2.0641,0,0,0,0,0,0,0,0,0,0,0,0,0,2.0276,2.0179,2.0386,2.041,2.0414,2.0502,2.0504,2.0506,2.0521,2.0519,2.0518,2.0516,2.063,2.0636,2.0642,2.0713,0,0,2.066,2.0663,0,0,0,0,0,0,0,0,2.027,2.0283,2.0405,2.0409,2.0413,2.0496,2.0472,2.0575,2.0521,2.048,2.0517,2.0515,2.0588,2.0598,2.0623,2.0718,2.0723,2.0661,2.0665,2.0667,2.0669,0,0,0,0,0,0,0,2.0263,2.0278,2.0432,2.0407,2.0412,2.0415,2.0427,2.0491,2.0542,2.0484,2.0485,2.0499,2.059,2.0617,2.0626,2.0725,2.0661,2.0666,2.067,2.0672,2.0885,2.0887,0,0,0,0,0,0,2.0252,2.0272,2.0429,2.0436,2.0336,2.042,2.0434,2.0471,2.0541,2.055,2.05,2.0499,2.0607,2.0618,2.063,2.0718,2.0667,2.0673,2.0677,2.0883,2.0885,2.0888,0,0,0,0,0,0,2.0247,2.0265,2.0424,2.0355,2.0375,2.0425,2.0466,2.0474,2.0501,2.0554,2.0562,2.0519,2.0606,2.0621,2.0692,2.0722,2.0676,2.0681,2.0881,2.0884,2.0887,2.0894,0,0,0,0,0,0,2.0241,2.0264,2.0292,2.0355,2.0379,2.0485,2.0468,2.0477,2.0512,2.0512,2.0574,2.0582,2.0606,2.0683,2.0699,2.073,2.0686,2.0878,2.0882,2.0886,2.0892,2.0897,2.0902,0,0,0,0,0,2.0233,2.0288,2.0293,2.0312,2.0415,2.0487,2.05,2.0528,2.0514,2.0543,2.0577,2.058,2.0717,2.069,2.0708,2.0741,2.0876,2.0881,2.0885,2.0889,2.0896,2.0902,0,0,0,0,0,0,2.0225,2.0297,2.0303,2.0381,2.0428,2.0489,2.0526,2.0534,2.0585,2.0583,2.0614,2.0628,2.0698,2.0727,2.0696,2.0814,2.0795,2.0803,2.0792,2.0799,2.0804,2.0795,2.0691,0,0,0,0,0,2.0233,2.0286,2.0346,2.0408,2.0432,2.0475,2.0507,2.0525,2.0574,2.0594,2.0633,2.068,2.0734,2.0768,2.0821,2.0897,2.091,2.0928,2.0933,2.0937,2.0943,2.0986,2.0995,2.0902,2.0902,2.0902,0,0,2.0248,2.0294,2.0326,2.0408,2.0447,2.0501,2.0491,2.0549,2.0589,2.0602,2.0672,2.0703,2.0758,2.0832,2.0866,2.0858,2.0973,2.0943,2.0946,2.095,2.0991,2.1,2.1008,2.0905,2.0904,2.0904,0,0,2.0304,2.0344,2.0401,2.0441,2.05,2.0529,2.0542,2.0603,2.0625,2.0696,2.0708,2.0755,2.0847,2.0886,2.0917,2.099,2.0995,2.1006,2.1032,2.1073,2.1081,2.1087,2.1113,2.1121,2.1012,2.1012,2.1012,0,2.0315,2.0398,2.0429,2.0486,2.0522,2.0539,2.0596,2.0633,2.0705,2.0729,2.072,2.0836,2.0874,2.0957,2.0975,2.1001,2.1017,2.0998,2.1077,2.1084,2.1091,2.1115,2.1125,2.1013,2.1013,2.1013,2.1013,0,2.0408,2.0466,2.0504,2.0576,2.0616,2.0673,2.0712,2.0749,2.0764,2.0793,2.0866,2.0912,2.0975,2.0996,2.101,2.1082,2.1075,2.1071,2.1052,2.11,2.1124,2.1133,2.1014,2.1014,2.1014,2.1014,0,0,2.046,2.055,2.0563,2.0597,2.0664,2.0709,2.0767,2.0829,2.086,2.091,2.0959,2.1037,2.1035,2.1071,2.109,2.1126,2.118,2.1118,2.1119,2.1127,2.1262,2.1264,2.1274,2.1185,2.1187,2.1188,2.1257,0,2.0523,2.0628,2.0658,2.0746,2.0799,2.0817,2.0868,2.0914,2.0944,2.0993,2.1025,2.108,2.1072,2.1094,2.1131,2.1166,2.1207,2.1161,2.1229,2.1231,2.1214,2.1286,2.1288,2.1351,2.1267,2.1268,2.1269,0,2.0609,2.0663,2.0757,2.0819,2.0842,2.0887,2.0948,2.0995,2.1048,2.1067,2.1108,2.1124,2.1185,2.1164,2.1248,2.1216,2.1246,2.1267,2.127,2.1276,2.1252,2.1293,2.1371,2.138,2.1284,2.1283,2.1282,0,2.0637,2.0733,2.0801,2.0829,2.0903,2.0935,2.0967,2.1019,2.1055,2.1107,2.1131,2.1189,2.1221,2.1265,2.1297,2.1279,2.1378,2.136,2.1394,2.1393,2.1412,2.1411,2.1495,2.1434,2.1434,2.1433,2.1433,0,2.0703,2.076,2.0815,2.0857,2.0921,2.0955,2.1017,2.105,2.1096,2.1145,2.1164,2.1208,2.1248,2.1297,2.1322,2.1388,2.1402,2.1418,2.1424,2.1416,2.1414,2.1435,2.1431,2.1436,2.1435,2.1435,2.1434,0,2.0744,2.0783,2.0859,2.0924,2.0942,2.0986,2.1041,2.1082,2.1113,2.1174,2.119,2.1239,2.1298,2.1335,2.141,2.1427,2.1499,2.1503,2.1481,2.1483,2.1515,2.1511,2.1615,2.1631,2.156,2.156,2.1561,0,2.0783,2.0827,2.0897,2.0932,2.0965,2.102,2.1057,2.1093,2.1131,2.1196,2.123,2.1291,2.1342,2.1437,2.1478,2.1535,2.1541,2.1573,2.1549,2.154,2.154,2.1537,2.1541,2.1577,2.1577,2.1578,2.1578,0,2.0848,2.0866,2.0919,2.0981,2.1025,2.1075,2.1124,2.1151,2.1195,2.1237,2.1299,2.1339,2.1417,2.1477,2.1539,2.1571,2.1582,2.1586,2.1597,2.1588,2.1573,2.1581,2.1491,2.1583,2.1582,2.1582,2.1582,2.1582,2.0888,2.0929,2.0985,2.1044,2.1086,2.1132,2.1174,2.1211,2.1264,2.1331,2.1349,2.1414,2.1468,2.1552,2.1586,2.1637,2.1632,2.1647,2.1651,2.1654,2.1655,2.1567,2.1648,2.1648,2.1648,2.1648,2.1648,0,2.0953,2.0991,2.1046,2.1115,2.1162,2.117,2.1226,2.1264,2.1321,2.1371,2.1421,2.1493,2.1552,2.1599,2.166,2.1691,2.1698,2.1706,2.1703,2.171,2.1656,2.164,2.17,2.17,2.17,2.17,2.17,2.17,2.0993,2.1061,2.1086,2.1176,2.1213,2.1278,2.1309,2.1351,2.1391,2.147,2.152,2.1551,2.16,2.1664,2.1719,2.1731,2.1752,2.1759,2.1772,2.172,2.1714,2.1709,2.1694,2.1764,2.1764,2.1822,2.1822,2.1823]}]]